Location: Kott?ru
(16.6209°N, 80.6208°E)
Time: 05:27:31
(UTC+00:00)

Hubble Space Telescope - Pass Details

Date: 11 February 2023
Orbit: 527 x 530 km, 28.5° (Epoch: 27 March)

Event Time Altitude Azimuth Distance (km) Brightness Sun altitude
Rises 13:40:27 0° 259° (W) 2,644 6.2 -15.4°
Reaches altitude 10° 13:42:47 10° 266° (W) 1,755 4.7 -15.9°
Maximum altitude 13:46:40 44° 339° (NNW) 732 1.5 -16.8°
Enters shadow 13:48:24 27° 34° (NE) 1,025 1.8 -17.3°
